Weather History for KSNT - November, 2011

Change the Weather History Date:

Tuesday, November 1, 2011

  Actual Average Record
Temperature  
Mean Temperature 23 °F 32 °F  
Max Temperature 36 °F 45 °F 66 °F (1988)
Min Temperature 10 °F 18 °F -10 °F (2002)
Degree Days  
Heating Degree Days 42 33  
Month to date heating degree days 42 33  
Since 1 July heating degree days 1758 1897  
Cooling Degree Days 0 0  
Month to date cooling degree days 0 0  
Year to date cooling degree days 3 3  
Moisture  
Dew Point 12 °F    
Average Humidity 55    
Maximum Humidity 80    
Minimum Humidity 29    
Precipitation  
Precipitation 0.00 in 0.10 in 0.47 in (2014)
Month to date precipitation 0.00 0.10  
Year to date precipitation 16.44 13.78  
Sea Level Pressure  
Sea Level Pressure 30.24 in    
Wind  
Wind Speed 4 mph (NNW)    
Max Wind Speed 15 mph    
Max Gust Speed 22 mph    
T = Trace of Precipitation, MM = Missing Value Source: NWS Daily Summary

Daily Weather History Graph

Daily Weather History Graph

Search for Another Location

Airport or City:

Trip Planner

Search our weather history database for the weather conditions in past years. The results will help you decide how hot, cold, wet, or windy it might be!

Date:

Astronomy

Nov. 01, 2011 Rise Set
Actual Time 8:16 AM MDT 6:29 PM MDT
Civil Twilight 7:46 AM MDT 6:59 PM MDT
Nautical Twilight 7:11 AM MDT 7:33 PM MDT
Astronomical Twilight 6:38 AM MDT 8:07 PM MDT
Moon 2:07 PM MDT (11/1) No Moon Set
Length of Visible Light 11h 13m
Length of Day
10h 13m
Waxing Crescent, 40% of the Moon is Illuminated
Nov 1
Waxing Crescent
Nov 2
First Quarter
Nov 10
Full
Nov 18
Last Quarter
Nov 24
New

Hourly Weather History & Observations

Time (MDT) Temp. Windchill Dew Point Humidity Pressure Visibility Wind Dir Wind Speed Gust Speed Precip Events Conditions
1:51 AM 27.0 °F - 19.9 °F 75% 30.03 in - Calm Calm - N/A   Unknown
2:51 AM 26.1 °F - 19.0 °F 75% 30.04 in - Calm Calm - N/A   Unknown
3:51 AM 24.1 °F 19.7 °F 17.1 °F 75% 30.06 in - NNW 3.5 mph - N/A   Unknown
4:51 AM 23.0 °F 17.0 °F 16.0 °F 74% 30.06 in - North 4.6 mph - N/A   Unknown
5:51 AM 23.0 °F - 14.0 °F 68% 30.11 in - Calm Calm - N/A   Unknown
6:51 AM 19.9 °F - 12.9 °F 74% 30.18 in - Calm Calm - N/A   Unknown
7:51 AM 18.0 °F - 10.9 °F 74% 30.21 in - Calm Calm - N/A   Unknown
8:51 AM 19.0 °F - 12.9 °F 77% 30.23 in - Calm Calm - N/A   Unknown
9:51 AM 24.1 °F - 15.1 °F 69% 30.21 in - Calm Calm - N/A   Unknown
10:51 AM 28.9 °F 25.2 °F 15.1 °F 56% 30.22 in - NNW 3.5 mph - N/A   Unknown
11:51 AM 28.9 °F 21.9 °F 10.9 °F 47% 30.24 in - NNW 6.9 mph - N/A   Unknown
12:51 PM 33.1 °F 24.9 °F 9.0 °F 37% 30.22 in - NNW 10.4 mph - N/A   Unknown
1:51 PM 35.1 °F 27.4 °F 7.0 °F 31% 30.18 in - NW 10.4 mph 17.3 mph N/A   Unknown
2:51 PM 34.0 °F 26.0 °F 7.0 °F 32% 30.20 in - NW 10.4 mph 19.6 mph N/A   Unknown
3:51 PM 30.9 °F 22.8 °F 10.9 °F 43% 30.24 in - NW 9.2 mph 18.4 mph N/A   Unknown
4:51 PM 28.9 °F 21.9 °F 10.0 °F 45% 30.27 in - NNW 6.9 mph 17.3 mph N/A   Unknown
5:51 PM 28.9 °F 20.4 °F 9.0 °F 43% 30.30 in - North 9.2 mph - N/A   Unknown
6:51 PM 25.0 °F 17.1 °F 10.0 °F 53% 30.37 in - NW 6.9 mph - N/A   Unknown
7:51 PM 24.1 °F 18.2 °F 10.0 °F 55% 30.42 in - Variable 4.6 mph - N/A   Unknown
8:51 PM 19.9 °F - 9.0 °F 62% 30.45 in - Calm Calm - N/A   Unknown
9:51 PM 16.0 °F - 8.1 °F 71% 30.45 in - Calm Calm - N/A   Unknown
10:51 PM 15.1 °F - 8.1 °F 74% 30.46 in - Calm Calm - N/A   Unknown
11:51 PM 14.0 °F - 8.1 °F 77% 30.47 in - Calm Calm - N/A   Unknown